Tracking 28518 objects as of 1-Mar-2024
HD Live streaming from Space Station
objects crossing your sky now

TEVEL 1

Track TEVEL 1 now!
10-day predictions
TEVEL 1 is classified as:


NORAD ID: 51013
Int'l Code: 2022-002AF
Perigee: 439.7 km
Apogee: 445.4 km
Inclination: 97.4 °
Period: 93.3 minutes
Semi major axis: 6813 km
RCS: Unknown
Launch date: January 13, 2022
Source: Israel (ISRA)
Launch site: AIR FORCE EASTERN TEST RANGE (AFETR)

Uplink (MHz): 145.970
Downlink (MHz): 436.400
Beacon (MHz):
Mode: 9600bps BPSK FM
Call sign: T1OFK
Status: Active

Your satellite tracking list
Your tracking list is empty




NASA's NSSDC Master Catalog

Two Line Element Set (TLE):
1 51013U 22002AF  24060.88754570  .00047060  00000-0  10420-2 0  9998
2 51013  97.3938 133.3680 0004167  39.1145 321.0403 15.43636653118236
Source of the keplerian elements: AMSAT